Powrót do katalogu

COSMOS 1928

AktywnyMilitariaLEO
NORAD 18941·PAYLOAD·🇷🇺 Russia

Wystrzelony Mar 11, 1988 z Plesetsk Cosmodrome

Loading…

Następne Przeloty (najbliższe 24 godziny)

TLE

ŚwieżeSource: Space-Track

Epoka: Sep 14, 2026, 23:07 UTC

1 18941U 88016E   26257.96342679 -.00000027  00000-0 -66870-4 0  9996
2 18941  74.0022  82.7780 0010415  85.9397  68.1657 12.52895633668113

Śledź COSMOS 1928 w czasie rzeczywistym z AllMySat

Download on the App Store